Location: Domont
(49.0278°N, 2.3264°E)
Time: 11:55:39
(UTC+00:00)

H-2A R/B - Pass Details

Date: 07 June 2022
Orbit: 576 x 653 km, 98.5° (Epoch: 30 June)

Event Time Altitude Azimuth Distance (km) Brightness Sun altitude
Rises 20:34:18 0° 10° (N) 2,813 6.0 -6.0°
Reaches altitude 10° 20:36:28 10° 6° (N) 1,915 5.2 -6.3°
Maximum altitude 20:40:31 55° 289° (WNW) 716 2.8 -6.7°
Drops below altitude 10° 20:44:37 10° 212° (SSW) 1,935 4.5 -7.2°
Sets 20:46:49 0° 208° (SSW) 2,846 5.3 -7.4°
